Location: Cr�ancey
(47.2474°N, 4.5851°E)
Time: 15:19:48
(UTC+00:00)

Daily predictions for brighter satellites

Satellite Brightness Start Highest point End
(mag) Time Altitude Azimuth Time Altitude Azimuth Time Altitude Azimuth
USA 234 4.2 17:36:29 10° ENE 17:42:28 40° N 17:48:27 10° WNW
CZ-4 R/B 1.5 17:41:11 10° SSE 17:45:18 58° ENE 17:49:23 10° N
STARLINK-1059 4.3 17:41:55 10° SSW 17:45:48 40° SE 17:49:40 10° ENE
SL-27 R/B 2.2 17:42:40 10° NNW 17:46:02 79° ENE 17:49:20 10° SSE
NOSS 2-3 (D) 4.5 17:42:13 10° S 17:46:03 32° ESE 17:50:24 10° NE
STARLINK-1016 3.1 17:43:37 10° WSW 17:46:54 77° NNW 17:50:12 10° ENE
STARLINK-1008 3.1 17:44:00 10° WSW 17:47:18 76° NNW 17:50:38 10° ENE
USA 229 DEB 3.7 17:41:18 10° SSW 17:47:50 81° SE 17:54:45 10° NE
USA 229 3.7 17:41:25 10° SSW 17:47:56 80° SE 17:54:51 10° NE
STARLINK-81 3.7 17:44:25 10° WSW 17:48:25 72° NNW 17:52:28 10° ENE
Cosmos 1805 Rocket 4.1 17:44:46 10° SSW 17:49:06 65° W 17:53:27 10° N
Cosmos 1470 Rocket 4.3 17:45:54 10° SSE 17:49:44 31° E 17:53:37 10° NNE
STARLINK-54 3.8 17:46:18 10° WSW 17:50:18 67° NNW 17:54:19 10° ENE
STARLINK-1025 3.2 17:47:20 10° WSW 17:50:38 73° NNW 17:53:56 10° ENE
STARLINK-1057 4.2 17:46:50 10° SSW 17:50:46 43° SE 17:54:42 10° ENE
STARLINK-75 4.0 17:48:17 10° W 17:51:33 43° NNW 17:54:49 10° NE
STARLINK-77 3.8 17:47:44 10° WSW 17:51:45 69° NNW 17:55:46 10° ENE
STARLINK-1017 3.2 17:49:00 10° WSW 17:52:18 71° NNW 17:55:36 10° ENE
STARLINK-22 3.8 17:49:14 10° W 17:52:30 47° NNW 17:55:47 10° ENE
STARLINK-25 3.8 17:49:25 10° WSW 17:53:25 68° NNW 17:57:26 10° ENE
STARLINK-41 3.9 17:50:44 10° W 17:53:59 45° NNW 17:57:14 10° NE
NOSS 3-1 (A) 3.4 17:49:43 10° SSW 17:55:05 59° ESE 18:01:20 10° NE
STARLINK-71 3.9 17:51:19 10° WSW 17:55:18 62° NNW 17:59:19 10° ENE
Cosmos 1862 Rocket 3.7 17:51:18 10° N 17:55:32 50° ENE 17:59:46 10° SSE
STARLINK-1034 4.1 17:51:44 10° SW 17:55:42 47° SE 17:59:41 10° ENE
Cosmos 2242 Rocket 4.4 17:51:42 10° N 17:55:48 32° ENE 17:59:52 10° SE
COSMO-SKYMED 1 2.5 17:51:54 10° NNE 17:56:16 80° ESE 18:00:36 10° S
STARLINK-79 3.8 17:52:43 10° WSW 17:56:43 65° NNW 18:00:44 10° ENE
STARLINK-52 3.0 17:53:35 10° WNW 17:56:58 78° NNE 18:00:21 10° ESE
STARLINK-1048 3.3 17:54:04 10° WSW 17:57:22 66° NNW 18:00:41 10° ENE
Cosmos 1707 Rocket 3.9 17:53:28 10° NNW 17:57:55 72° W 18:02:22 10° S
Okean-O 3.3 17:53:39 10° S 17:58:02 60° WSW 18:02:26 10° NNW
STARLINK-78 3.9 17:54:25 10° WSW 17:58:24 63° NNW 18:02:24 10° ENE
STARLINK-1049 3.3 17:55:46 10° WSW 17:59:04 64° NNW 18:02:23 10° ENE
STARLINK-60 4.1 17:56:13 10° WNW 17:59:23 44° SW 18:02:32 10° SE
STARLINK-57 3.9 17:56:11 10° WSW 18:00:10 61° NNW 18:04:10 10° ENE
CENTAUR R/B 4.3 17:54:43 10° NW 18:00:26 24° N 18:06:45 10° ENE
STARLINK-1068 3.9 17:56:39 10° SW 18:00:39 51° SE 18:04:39 10° ENE
STARLINK-1051 3.4 17:57:32 10° WSW 18:00:50 63° NNW 18:04:08 10° ENE
FALCON 9 DEB 3.2 17:57:44 10° WNW 18:01:11 79° SSW 18:04:37 10° SE
STARLINK-1028 3.4 17:57:55 10° WSW 18:01:13 62° NNW 18:04:32 10° ENE
STARLINK-64 4.0 17:57:47 10° W 18:01:15 45° NNW 18:04:45 10° ENE
STARLINK-49 3.9 17:57:42 10° WSW 18:01:42 61° NNW 18:05:42 10° ENE
Cosmos 1812 2.7 17:59:06 10° N 18:02:59 90° N 18:06:51 10° S
STARLINK-1021 3.4 17:59:41 10° WSW 18:02:59 61° NNW 18:06:18 10° ENE
Cosmos 2369 Rocket 2.2 17:57:46 10° SSW 18:03:22 68° ESE 18:09:02 10° NNE
STARLINK-27 3.9 17:59:23 10° WSW 18:03:22 60° NNW 18:07:21 10° ENE
STARLINK-26 4.4 18:00:15 10° WNW 18:03:24 31° N 18:06:34 10° ENE
STARLINK-1019 3.4 18:01:29 10° WSW 18:04:46 59° NNW 18:08:02 10° ENE
Cosmos 921 Rocket 3.1 18:00:21 10° SSW 18:04:52 90° ESE 18:09:25 10° NNE
STARLINK-74 4.0 18:01:03 10° WSW 18:05:01 59° NNW 18:09:01 10° ENE
Ariane Rocket 3.7 18:00:40 10° SE 18:05:10 32° ENE 18:09:40 10° N
STARLINK-1012 3.5 18:03:16 10° WSW 18:06:34 58° NNW 18:09:46 11° ENE
STARLINK-39 4.0 18:02:42 10° WSW 18:06:41 58° NNW 18:10:38 10° ENE
Lacrosse 5 3.8 18:05:54 10° SE 18:07:12 11° ESE 18:08:21 10° ESE
STARLINK-31 4.0 18:04:23 10° W 18:08:21 57° NNW 18:12:14 11° ENE
Okean 1-7 4.1 18:05:21 10° NNE 18:08:49 23° ENE 18:12:18 10° SE
STARLINK-1026 3.5 18:06:52 10° WSW 18:10:09 55° NNW 18:13:12 12° NE
STARLINK-69 4.1 18:06:14 10° W 18:10:12 54° NNW 18:14:00 11° ENE
STARLINK-1014 3.4 18:07:04 10° WSW 18:10:31 66° NNW 18:13:43 12° ENE
STARLINK-1060 3.8 18:06:30 10° SW 18:10:35 59° SE 18:14:13 13° ENE
STARLINK-21 4.1 18:07:43 10° W 18:11:41 55° NNW 18:15:26 11° ENE
STARLINK-1013 3.6 18:08:41 10° WSW 18:11:59 54° NNW 18:14:58 12° NE
ATLAS 3B R/B 4.4 18:07:30 10° NW 18:12:05 19° N 18:16:43 10° NE
SJ-6B 4.4 18:11:06 13° E 18:12:09 15° ENE 18:14:18 10° NNE
Cosmos 1703 Rocket 4.4 18:08:31 10° N 18:12:27 29° ENE 18:16:22 10° SE
STARLINK-45 4.1 18:09:37 10° W 18:13:33 51° NNW 18:17:13 12° ENE
STARLINK-1009 3.6 18:10:29 10° W 18:13:47 53° NNW 18:16:42 13° NE
CZ-2D R/B 3.2 18:10:13 10° SSE 18:14:05 75° ENE 18:17:59 10° N
STARLINK-70 4.1 18:11:12 10° W 18:15:08 52° NNW 18:18:45 12° ENE
STARLINK-1030 3.7 18:11:29 10° SW 18:15:34 64° SSE 18:19:02 14° ENE
STARLINK-1015 3.6 18:12:20 10° W 18:15:37 52° NNW 18:18:28 13° NE
Cosmos 1833 4.2 18:10:07 10° NNW 18:15:52 65° ENE 18:21:33 10° SE
STARLINK-76 4.1 18:12:44 10° W 18:16:41 52° NNW 18:20:13 13° ENE
STARLINK-23 4.1 18:14:24 10° W 18:18:20 51° NNW 18:21:47 13° ENE
STARLINK-32 4.2 18:16:04 10° W 18:20:00 51° NNW 18:23:24 13° NE
NOSS 2-3 (C) 3.7 18:15:43 10° SSW 18:20:00 65° SE 18:25:05 10° NE
STARLINK-1020 3.6 18:16:25 10° SW 18:20:31 69° SSE 18:23:48 16° ENE
SJ 16-02 2.3 18:17:25 10° N 18:21:13 27° ENE 18:23:52 16° ESE
STARLINK-40 4.2 18:17:43 10° W 18:21:39 50° NNW 18:24:58 14° NE
FREGAT/IRIS 4.2 18:23:34 16° NE 18:23:34 16° NE 18:24:51 10° NNE
STARLINK-1047 3.6 18:18:48 10° SW 18:22:57 73° SSE 18:26:11 16° ENE
STARLINK-44 4.2 18:19:25 10° W 18:23:20 49° NNW 18:26:35 14° NE
H-2A R/B 2.8 18:19:32 10° SE 18:24:21 34° ENE 18:29:14 10° N
STARLINK-37 4.2 18:21:12 10° W 18:25:06 48° NNW 18:28:16 15° NE
Cosmos 1937 Rocket 4.4 18:20:46 10° N 18:25:18 28° NE 18:28:21 17° ESE
STARLINK-1052 3.6 18:21:23 10° SW 18:25:31 74° SSE 18:28:36 17° ENE
ARGOS 3.9 18:21:03 10° ESE 18:25:44 31° ENE 18:30:28 10° N
STARLINK-61 4.5 18:22:15 10° W 18:25:57 38° N 18:28:49 15° NE
STARLINK-36 4.2 18:22:43 10° W 18:26:38 48° NNW 18:29:45 15° NE
STARLINK-68 4.3 18:24:38 10° W 18:28:31 46° NNW 18:31:32 16° NE
CSL-04 Rocket 3.9 18:23:19 10° SSE 18:28:50 79° WSW 18:34:21 10° NNW
STARLINK-63 4.3 18:26:11 10° W 18:30:04 46° NNW 18:33:01 16° NE
Cosmos 2263 4.2 18:25:07 10° SSW 18:30:53 80° ESE 18:36:41 10° NNE
STARLINK-35 4.3 18:27:43 10° W 18:31:37 46° NNW 18:34:31 17° NE
Cosmos 1346 Rocket 2.7 18:27:45 10° S 18:31:43 67° E 18:35:39 10° NNE
BREEZE-M DEB (TANK) 3.2 18:29:18 10° WNW 18:31:58 72° SSW 18:37:09 14° ESE
STARLINK-51 4.3 18:29:25 10° W 18:33:17 45° NNW 18:36:07 17° NE
STARLINK-1023 3.9 18:31:43 10° W 18:34:45 40° NNW 18:36:37 19° NE
STARLINK-43 3.9 18:31:19 10° WNW 18:34:52 43° NNE 18:36:38 25° ENE
STARLINK-30 4.3 18:31:05 10° W 18:34:57 45° NNW 18:37:42 18° NE
YAOGAN 1 3.4 18:31:08 10° S 18:35:23 54° W 18:39:39 10° NNW
STARLINK-1033 3.5 18:31:17 10° WSW 18:35:26 84° SSE 18:38:07 21° ENE
USA 186 3.9 18:38:08 10° NNE 18:38:08 10° NNE 18:38:10 10° NNE
STARLINK-72 4.4 18:32:44 10° W 18:36:36 44° NNW 18:39:17 18° NE
Nadezhda 4 Rocket 4.5 18:32:22 10° N 18:38:11 38° ENE 18:44:00 10° SE
STARLINK-50 4.4 18:34:24 10° W 18:38:15 44° NNW 18:40:52 19° NE
Cosmos 1633 Rocket 4.2 18:35:15 10° SSW 18:39:24 45° WNW 18:43:36 10° N
Cosmos 1464 Rocket 4.2 18:33:48 10° SSE 18:39:53 50° E 18:46:00 10° NNE
STARLINK-59 4.4 18:36:12 10° W 18:40:04 43° NNW 18:42:34 19° NE
Cosmos 44 Rocket 3.8 18:36:14 10° NNW 18:40:43 40° NE 18:42:58 25° E
OE (NEXTSAT) 4.4 18:37:52 10° W 18:41:21 71° S 18:42:51 31° ESE
STARLINK-56 4.4 18:37:43 10° W 18:41:35 43° NNW 18:44:02 20° NE
STARLINK-1035 3.7 18:38:22 10° WSW 18:42:38 83° NNW 18:45:14 23° ENE
STARLINK-73 4.4 18:39:25 10° W 18:43:16 43° NNW 18:45:39 20° NE
STARLINK-38 4.4 18:41:06 10° W 18:44:57 42° NNW 18:47:15 21° NE
STARLINK-1024 3.6 18:41:17 10° WSW 18:45:25 86° NNW 18:47:44 25° ENE
STARLINK-65 4.4 18:42:44 10° W 18:46:35 42° NNW 18:48:49 21° NE
Cosmos 2297 Rocket 3.6 18:42:35 10° N 18:46:37 19° NE 18:47:51 18° ENE
STARLINK-1046 4.5 18:43:35 10° SSW 18:47:14 30° SE 18:47:57 28° ESE
Aureole 2 Rocket 4.4 18:45:11 10° WSW 18:47:19 22° WNW 18:49:31 10° N
Cosmos 1933 Rocket 3.5 18:43:09 10° S 18:47:34 89° ESE 18:51:59 10° N
NOSS 3-1 (C) 4.2 18:42:14 10° WSW 18:47:42 49° NW 18:54:07 10° NE
STARLINK-53 4.5 18:44:29 10° W 18:48:19 41° NNW 18:50:29 22° NE
Cosmos 2285 Rocket 4.4 18:44:19 10° NNW 18:50:40 67° WSW 18:57:00 10° S
STARLINK-33 4.5 18:49:09 10° WNW 18:52:04 29° N 18:53:06 24° NNE
Meteor 1-20 Rocket 4.1 18:46:44 10° S 18:52:10 71° E 18:57:43 10° NNE
STARLINK-1039 4.4 18:48:28 10° SSW 18:52:10 33° SE 18:52:44 31° ESE
STARLINK-1027 3.8 18:49:02 10° WSW 18:53:17 71° NNW 18:55:28 28° NE
STARLINK-1007 4.2 18:50:19 10° W 18:53:20 35° NNW 18:54:29 26° NNE
STARLINK-55 4.4 18:51:11 10° WNW 18:54:06 28° N 18:55:01 24° NNE
STARLINK-66 4.4 18:51:15 10° WNW 18:54:10 28° N 18:55:06 24° NNE
Meteor 1-18 Rocket 4.3 18:48:43 10° N 18:54:38 67° ENE 19:00:25 10° SSE
STARLINK-1032 3.7 18:51:13 10° WSW 18:55:22 77° NNW 18:57:17 31° NE
STARLINK-28 4.4 18:52:52 10° WNW 18:55:46 28° N 18:56:36 25° NNE
STARLINK-80 4.2 18:52:32 10° WNW 18:56:09 38° NNE 18:57:10 32° NE
Cosmos 405 2.8 18:52:52 10° N 18:56:25 69° ENE 18:58:22 25° SSE
STARLINK-58 4.5 18:53:42 10° WNW 18:56:58 33° N 18:58:11 25° NNE
STARLINK-1045 4.2 18:53:21 10° SSW 18:57:08 35° SE 18:57:32 35° SE
Cosmos 2221 Rocket 4.5 18:53:14 10° N 18:56:58 30° ENE 18:56:58 30° ENE
COSMOS 2487 2.3 18:53:57 10° NNW 18:57:25 84° WSW 18:59:29 23° SSE
Cosmos 1943 Rocket 3.4 18:52:16 10° SW 18:57:30 41° NW 19:02:44 10° NNE
ADEOS Rocket 3.7 18:49:41 10° NNE 18:57:30 84° WNW 19:05:11 10° SSW
STARLINK-62 4.5 18:55:25 10° WNW 18:58:40 32° N 18:59:48 26° NNE
MOS 1 4.2 18:53:22 10° SSE 18:58:58 68° ENE 19:04:36 10° N
CZ-2C R/B 3.4 18:54:04 10° SSE 18:59:44 56° ENE 19:05:17 10° N
STARLINK-34 4.5 18:57:03 10° WNW 19:00:18 32° N 19:01:22 27° NNE
STARLINK-1011 3.7 18:56:12 10° WSW 19:00:20 72° NNW 19:02:03 34° NE
Cosmos 2034 Rocket 4.1 18:54:31 10° SSE 19:00:25 50° E 19:06:19 10° NNE
Cosmos 468 Rocket 4.1 18:56:42 10° S 19:01:49 54° ESE 19:07:01 10° NNE
STARLINK-1050 4.1 18:58:17 10° SSW 19:02:09 39° SE 19:02:26 39° SE
Okean 1 3.2 18:58:15 10° N 19:02:16 68° E 19:04:38 23° SSE
Timation 2 Rocket 4.2 18:55:32 10° NNW 19:02:24 67° ENE 19:07:09 21° SE
Lacrosse 5 rocket 3.0 18:58:41 10° NW 19:02:31 26° N 19:04:00 22° NE
STARLINK-42 4.4 18:59:51 10° WNW 19:02:43 28° N 19:03:16 27° NNE
Cosmos 1340 4.1 19:00:55 10° SW 19:04:26 38° WNW 19:08:00 10° N
STARLINK-1036 3.8 19:01:13 10° WSW 19:05:20 68° NNW 19:06:51 37° NE
Cosmos 2227 Rocket 3.5 19:01:01 10° N 19:05:24 22° NE 19:05:52 22° NE
BREEZE-M DEB (TANK) 2.6 19:03:32 10° WNW 19:05:57 69° NNE 19:06:06 67° NE
HJ-1C 4.4 19:03:42 10° S 19:06:53 46° W 19:10:06 10° NNW
STARLINK-1055 4.0 19:03:10 10° SSW 19:07:05 42° SE 19:07:11 42° SE
SPOT 3 Rocket 3.8 19:05:25 33° ESE 19:07:17 47° ENE 19:12:16 10° N
STARLINK 1040 4.3 19:05:15 10° WNW 19:07:40 25° N 19:07:42 25° N
STARLINK-1010 4.3 19:05:09 10° WNW 19:08:09 32° N 19:08:41 30° N
STARLINK-1044 3.9 19:06:12 10° WSW 19:10:19 65° NNW 19:11:37 40° NE
Meteor 1-14 Rocket 4.1 19:05:16 10° S 19:10:43 66° E 19:16:15 10° NNE
Meteor 2-11 Rocket 4.3 19:05:25 10° S 19:11:31 80° E 19:17:37 10° NNE
STARLINK-1031 3.9 19:07:33 10° WSW 19:11:33 59° NNW 19:12:46 40° NE
STARLINK-1022 3.9 19:08:06 10° SW 19:12:00 46° SE 19:12:00 46° SE
Lacrosse 4 Rocket 4.4 19:11:51 10° NW 19:13:04 11° NNW 19:14:19 10° NNW
Gbstr 26 Del rocket 3.1 19:09:42 10° SW 19:13:46 58° SE 19:14:28 51° ESE
Cosmos 1898 Rocket 3.4 19:08:34 10° NNW 19:13:47 86° ENE 19:17:01 24° SSE
STARLINK-1029 4.2 19:13:00 10° WNW 19:15:55 32° NNW 19:16:03 32° N
STARLINK-1042 3.9 19:13:00 10° SW 19:16:45 49° SSE 19:16:45 49° SSE
Resurs 1-3 4.4 19:19:42 34° NE 19:19:42 34° NE 19:22:48 10° N
STARLINK-1037 4.0 19:16:08 10° WSW 19:20:14 59° NNW 19:21:08 46° NNE
STARLINK-1056 3.9 19:17:57 10° SW 19:21:33 51° S 19:21:33 51° S
Cosmos 1092 Rocket 4.1 19:16:45 10° N 19:22:57 51° ENE 19:24:43 40° ESE
STARLINK-1016 4.5 19:20:44 10° WNW 19:23:34 30° NNW 19:23:34 30° NNW
STARLINK-1008 4.5 19:21:07 10° WNW 19:24:02 30° N 19:24:02 30° N
USA 234 3.9 19:21:54 29° ENE 19:24:39 42° NNE 19:30:43 10° NW
STARLINK-1059 4.0 19:21:13 10° W 19:25:18 56° NNW 19:25:59 49° NNE
STARLINK-1054 4.0 19:22:53 10° SW 19:26:20 51° S 19:26:20 51° S
Cosmos 1763 Rocket 3.3 19:22:05 10° SSW 19:27:16 72° ESE 19:32:33 10° NNE
Cosmos 1656 Rocket 4.2 19:22:41 10° SW 19:28:08 58° WNW 19:33:41 10° NNE
Cosmos 2219 3.6 19:24:19 10° NNW 19:29:48 43° NE 19:29:58 43° ENE
Meteor 2-4 Rocket 3.7 19:24:22 10° N 19:30:16 67° ENE 19:32:13 43° SE
Meteor 1-19 Rocket 4.3 19:24:26 10° NNW 19:30:18 83° W 19:35:17 14° S
STARLINK-1057 4.1 19:26:15 10° W 19:30:19 53° NNW 19:30:47 50° N
Cosmos 1570 Rocket 4.1 19:25:38 10° S 19:30:09 54° SE 19:30:09 54° SE
NOSS 3-2 (A) 4.3 19:24:47 10° NW 19:31:48 48° NE 19:34:00 39° E
STARLINK-1062 4.1 19:27:50 10° SW 19:31:07 50° SSW 19:31:07 50° SSW
STARLINK-1034 4.1 19:31:14 10° W 19:35:18 51° NNW 19:35:33 50° N
STARLINK-1053 4.2 19:32:46 10° SW 19:35:53 48° SSW 19:35:53 48° SSW
Resurs 01 Rocket 3.0 19:38:52 27° NNE 19:38:52 27° NNE 19:41:07 10° N
Cosmos 858 Rocket 4.5 19:32:13 10° NNW 19:37:29 81° WSW 19:39:03 46° S
Cosmos 2195 Rocket 4.5 19:32:05 10° N 19:38:06 55° ENE 19:38:27 54° E
STARLINK-1068 4.2 19:36:15 10° W 19:40:18 49° NNW 19:40:19 49° NNW
STARLINK-1061 4.4 19:37:43 10° SW 19:40:40 45° SW 19:40:40 45° SW
Ariane Rocket 4.4 19:39:18 10° SSW 19:44:02 38° W 19:48:47 10° NNW
SL-08 RB Rocket 3.7 19:45:57 79° WSW 19:46:00 79° WSW 19:50:29 10° NNW
SJ-6B 3.5 19:46:42 49° W 19:46:42 49° W 19:50:07 10° NNW
Okean 1-7 4.5 19:42:32 10° NNW 19:46:30 36° W 19:50:28 10° SSW
Cosmos 2369 Rocket 4.3 19:43:17 10° W 19:47:55 25° NW 19:52:37 10° N
Cosmos 2263 Rocket 4.5 19:47:49 10° NNE 19:48:31 10° NNE 19:48:31 10° NNE
Lacrosse 5 2.6 19:44:15 10° SSW 19:47:37 40° SSW 19:47:37 40° SSW
MetOp-A 4.0 19:50:10 76° SSE 19:50:36 86° ENE 19:56:00 10° NNW
ARGOS Delta rocket 3.9 19:51:19 62° WSW 19:51:32 64° W 19:55:59 10° NNW
CENTAUR R/B 3.6 19:46:01 10° NW 19:53:18 42° NE 19:54:46 39° ENE
Meteor 1-13 Rocket 4.2 19:53:29 10° N 19:59:12 78° NE 19:59:12 78° NE
SJ 16-02 2.8 19:55:50 10° NW 19:59:51 35° WSW 20:00:55 30° SW
H-2A R/B 3.4 19:58:41 10° SSW 20:03:41 39° W 20:08:47 10° NNW
ATLAS 3B R/B 3.7 19:59:09 10° NNW 20:05:01 31° NNE 20:05:09 31° NNE
ARGOS 4.2 20:01:41 15° SSW 20:05:50 43° W 20:11:02 10° NNW
Cosmos 1627 Rocket 4.3 19:59:59 10° N 20:05:55 77° NE 20:05:55 77° NE
Cosmos 1937 Rocket 4.3 20:02:28 10° NNW 20:07:29 47° WSW 20:08:35 40° SW
Cosmos 2026 Rocket 4.2 20:24:08 10° NNW 20:29:35 66° NW 20:29:35 66° NW
USA 238 DEB 3.8 20:23:53 10° NW 20:30:43 81° NNW 20:30:43 81° NNW
USA 238 3.8 20:23:59 10° NW 20:30:47 80° N 20:30:47 80° N
Cosmos 2297 Rocket 3.0 20:25:49 10° NNW 20:29:41 45° NNW 20:29:41 45° NNW
Lacrosse 5 rocket 3.9 20:37:57 10° NW 20:39:39 22° NW 20:39:39 22° NW
Cosmos 2227 Rocket 3.5 20:44:26 10° NNW 20:47:42 36° NW 20:47:42 36° NW
BREEZE-M DEB (TANK) 4.2 20:45:10 10° WNW 20:56:33 55° WNW 20:56:33 55° WNW
USA 234 4.0 21:09:15 47° NW 21:09:15 47° NW 21:13:45 10° NW
CENTAUR R/B 3.9 21:36:42 10° NW 21:41:57 46° NW 21:41:57 46° NW
ATLAS 3B R/B 4.4 21:49:43 10° NW 21:52:24 26° NW 21:52:24 26° NW
